Location: Bazinghen
(50.8246°N, 1.6616°E)
Time: 06:53:37
(UTC+00:00)

Cosmos 2058 Rocket - Pass Details

Date: 09 April 2020
Orbit: 609 x 640 km, 82.5° (Epoch: 24 May)

Event Time Altitude Azimuth Distance (km) Brightness Sun altitude
Rises 20:31:32 0° 209° (SSW) 2,935 6.4 -16.7°
Reaches altitude 10° 20:33:53 10° 216° (SW) 2,030 5.7 -17.0°
Maximum altitude 20:38:09 41° 287° (WNW) 938 4.5 -17.5°
Drops below altitude 10° 20:42:26 10° 358° (N) 2,037 6.3 -18.1°
Sets 20:44:48 0° 6° (N) 2,946 7.0 -18.4°
